Date,TemperatureHighF,TemperatureAvgF,TemperatureLowF,DewpointHighF,DewpointAvgF,DewpointLowF,HumidityHigh,HumidityAvg,HumidityLow,PressureMaxIn,PressureMinIn,WindSpeedMaxMPH,WindSpeedAvgMPH,GustSpeedMaxMPH,PrecipitationSumIn
2013-2-1,30,26,22,16,10,6,73,53,38,30.25,29.79,17,4,30,0.00
2013-2-2,28,22,16,20,11,5,90,64,38,30.33,30.09,10,2,20,0.00
2013-2-3,30,24,19,20,18,16,94,78,58,30.09,29.83,4,1,7,0.03
2013-2-4,29,25,20,20,10,7,85,55,41,30.00,29.84,13,4,18,0.00
2013-2-5,28,26,24,25,22,12,92,82,58,30.02,29.94,3,0,4,0.00
2013-2-6,38,31,24,27,19,2,96,66,33,30.38,29.95,9,3,17,0.02
2013-2-7,30,25,18,19,10,2,70,53,37,30.55,30.38,3,0,5,0.00
2013-2-8,32,30,25,30,27,20,97,90,72,30.38,29.68,9,3,15,0.00
2013-2-9,33,26,18,25,15,4,96,66,35,30.37,29.79,11,4,19,0.00
2013-2-10,38,24,10,20,10,4,80,57,34,30.52,30.36,4,1,9,0.01
2013-2-11,41,35,27,41,32,20,99,91,73,30.36,29.70,2,0,8,0.05
2013-2-12,44,39,34,37,28,23,96,65,50,29.99,29.74,12,2,20,0.00
2013-2-13,44,35,26,31,25,21,96,68,47,29.98,29.73,4,1,6,0.00
2013-2-14,46,36,26,31,28,25,96,76,47,30.02,29.75,4,0,8,0.10
2013-2-15,54,41,29,34,30,26,95,67,38,30.04,29.93,6,1,12,0.00
2013-2-16,37,33,29,33,25,14,94,74,55,30.00,29.78,8,2,11,0.05
2013-2-17,30,24,15,14,5,-1,56,45,32,30.02,29.70,22,6,31,0.00
2013-2-18,33,24,15,14,6,1,60,48,33,30.26,30.02,16,4,29,0.00
2013-2-19,45,35,23,40,27,14,96,75,52,30.23,29.71,12,1,24,0.29
2013-2-20,36,29,23,22,14,9,65,54,43,30.00,29.73,14,5,29,0.00
2013-2-21,32,26,22,14,12,10,70,58,47,30.34,30.00,16,5,25,0.00
2013-2-22,37,30,22,28,21,14,81,70,54,30.44,30.31,7,2,11,0.00
2013-2-23,39,35,32,38,34,28,98,95,81,30.31,29.85,9,1,9,0.14
2013-2-24,45,37,32,39,32,23,98,82,60,30.00,29.78,10,3,20,0.01
2013-2-25,44,37,30,29,26,22,79,66,52,30.27,30.00,6,1,11,0.00
2013-2-26,41,36,30,33,30,26,94,77,66,30.33,29.97,8,2,15,0.17
2013-2-27,44,40,34,43,39,33,98,95,89,29.96,29.54,15,3,20,0.99
2013-2-28,48,41,37,38,34,30,96,78,57,29.65,29.57,9,1,9,0.00